"Zeitpunkt";"timestamp";"D0";"V0";"V0_max";"T0";"F0";"G0";"S0";"R0";"M0";"T1";"L0";"L0_nn"
"18.03.2024, 00:00";"1710723601";"151";"5";"10";"97";"91";"8";"0";"10";"0";"91";"0";"9996"
"18.03.2024, 00:10";"1710724201";"160";"5";"9";"97";"91";"8";"0";"10";"0";"91";"0";"9996"
"18.03.2024, 00:20";"1710724801";"158";"4";"9";"97";"92";"8";"0";"10";"0";"92";"0";"9996"
"18.03.2024, 00:30";"1710725401";"158";"5";"9";"97";"92";"8";"0";"10";"0";"92";"0";"9996"
"18.03.2024, 00:40";"1710726001";"158";"4";"8";"97";"92";"8";"0";"10";"0";"92";"0";"9996"
"18.03.2024, 00:50";"1710726601";"157";"4";"9";"98";"92";"8";"0";"10";"0";"93";"0";"9996"
"18.03.2024, 01:00";"1710727201";"168";"4";"7";"98";"92";"8";"0";"10";"0";"93";"0";"9994"
"18.03.2024, 01:10";"1710727801";"178";"3";"6";"98";"92";"8";"0";"10";"0";"93";"0";"9994"
"18.03.2024, 01:20";"1710728401";"153";"5";"8";"99";"92";"8";"0";"10";"0";"93";"0";"9994"
"18.03.2024, 01:30";"1710729002";"158";"5";"9";"99";"91";"8";"0";"10";"0";"93";"0";"9994"
"18.03.2024, 01:40";"1710729601";"169";"5";"8";"99";"91";"8";"0";"10";"0";"93";"0";"9994"
"18.03.2024, 01:50";"1710730202";"169";"5";"8";"100";"91";"8";"0";"10";"0";"93";"0";"9994"
"18.03.2024, 02:00";"1710730801";"167";"5";"8";"100";"91";"8";"0";"10";"0";"94";"0";"9989"
"18.03.2024, 02:10";"1710731401";"166";"4";"7";"100";"91";"8";"0";"10";"0";"94";"0";"9989"
"18.03.2024, 02:20";"1710732001";"167";"4";"8";"100";"91";"8";"0";"10";"0";"94";"0";"9989"
"18.03.2024, 02:30";"1710732601";"168";"4";"7";"100";"91";"8";"0";"10";"0";"94";"0";"9989"
"18.03.2024, 02:40";"1710733201";"163";"4";"7";"100";"91";"8";"0";"10";"0";"94";"0";"9989"
"18.03.2024, 02:50";"1710733801";"159";"4";"7";"101";"91";"8";"0";"10";"0";"94";"0";"9989"
"18.03.2024, 03:00";"1710734401";"162";"4";"9";"101";"91";"8";"0";"10";"0";"95";"0";"9987"
"18.03.2024, 03:10";"1710735001";"156";"5";"8";"101";"91";"8";"0";"10";"0";"95";"0";"9987"
"18.03.2024, 03:20";"1710735601";"155";"4";"7";"102";"91";"8";"0";"10";"0";"95";"0";"9987"
"18.03.2024, 03:30";"1710736201";"161";"4";"6";"102";"91";"8";"0";"10";"0";"96";"0";"9987"
"18.03.2024, 03:40";"1710736801";"155";"4";"6";"102";"91";"8";"0";"10";"0";"96";"0";"9987"
"18.03.2024, 03:50";"1710737401";"156";"4";"7";"102";"91";"8";"0";"10";"0";"96";"0";"9987"
"18.03.2024, 04:00";"1710738001";"158";"4";"8";"102";"91";"8";"0";"10";"0";"96";"0";"9984"
"18.03.2024, 04:10";"1710738602";"160";"4";"8";"102";"91";"8";"0";"5";"0";"96";"0";"9984"
"18.03.2024, 04:20";"1710739201";"153";"4";"8";"103";"90";"9";"0";"0";"0";"96";"0";"9984"
"18.03.2024, 04:30";"1710739801";"156";"4";"7";"103";"90";"8";"0";"0";"0";"96";"0";"9984"
"18.03.2024, 04:40";"1710740401";"160";"4";"7";"103";"90";"8";"0";"0";"0";"96";"0";"9984"
"18.03.2024, 04:50";"1710741001";"165";"4";"7";"103";"91";"8";"0";"0";"0";"96";"0";"9984"
"18.03.2024, 05:00";"1710741601";"163";"4";"7";"103";"91";"8";"0";"0";"0";"96";"0";"9984"
"18.03.2024, 05:10";"1710742201";"171";"4";"7";"103";"91";"8";"0";"0";"0";"97";"0";"9984"
"18.03.2024, 05:20";"1710742801";"165";"4";"8";"103";"91";"12";"0";"0";"0";"97";"0";"9984"
"18.03.2024, 05:30";"1710743401";"164";"4";"8";"104";"91";"29";"0";"0";"0";"98";"0";"9984"
"18.03.2024, 05:40";"1710744001";"163";"4";"7";"104";"90";"20";"0";"0";"0";"98";"0";"9984"
"18.03.2024, 05:50";"1710744601";"168";"4";"7";"104";"90";"16";"0";"0";"0";"99";"0";"9984"
"18.03.2024, 06:00";"1710745201";"169";"4";"7";"105";"90";"27";"0";"0";"0";"101";"0";"9989"
"18.03.2024, 06:10";"1710745801";"162";"4";"6";"106";"90";"83";"0";"0";"0";"105";"0";"9989"
"18.03.2024, 06:20";"1710746401";"165";"3";"6";"108";"90";"124";"0";"0";"0";"106";"0";"9989"
"18.03.2024, 06:30";"1710747001";"168";"3";"6";"109";"89";"147";"0";"0";"0";"107";"0";"9989"
"18.03.2024, 06:40";"1710747601";"158";"4";"7";"111";"89";"93";"0";"0";"0";"106";"0";"9989"
"18.03.2024, 06:50";"1710748201";"169";"3";"5";"111";"89";"36";"0";"0";"0";"107";"0";"9989"
"18.03.2024, 07:00";"1710748801";"167";"3";"6";"112";"89";"47";"0";"0";"0";"108";"0";"9989"
"18.03.2024, 07:10";"1710749401";"173";"4";"6";"113";"89";"72";"0";"0";"0";"112";"0";"9989"
"18.03.2024, 07:20";"1710750001";"168";"3";"7";"114";"88";"195";"0";"0";"0";"116";"0";"9989"
"18.03.2024, 07:30";"1710750601";"173";"3";"7";"117";"88";"292";"0";"0";"0";"119";"0";"9989"
"18.03.2024, 07:40";"1710751201";"182";"4";"8";"118";"87";"301";"0";"0";"0";"117";"0";"9989"
"18.03.2024, 07:50";"1710751801";"179";"4";"7";"118";"87";"208";"0";"0";"0";"117";"0";"9989"
"18.03.2024, 08:00";"1710752401";"178";"4";"7";"118";"87";"212";"0";"0";"0";"119";"0";"9989"
"18.03.2024, 08:10";"1710753001";"179";"3";"7";"120";"86";"269";"0";"0";"0";"126";"0";"9989"
"18.03.2024, 08:20";"1710753601";"195";"3";"6";"125";"84";"1,411";"9";"0";"0";"158";"0";"9989"
"18.03.2024, 08:30";"1710754201";"199";"3";"7";"128";"81";"1,882";"10";"0";"0";"126";"0";"9989"
"18.03.2024, 08:40";"1710754801";"228";"5";"8";"130";"80";"617";"8";"0";"0";"127";"0";"9989"
"18.03.2024, 08:50";"1710755401";"215";"4";"8";"132";"78";"424";"5";"0";"0";"146";"0";"9989"
"18.03.2024, 09:00";"1710756001";"223";"5";"11";"134";"75";"1,020";"10";"0";"0";"138";"0";"9988"
"18.03.2024, 09:10";"1710756601";"226";"4";"9";"138";"73";"1,847";"9";"0";"0";"146";"0";"9988"
"18.03.2024, 09:20";"1710757201";"200";"4";"8";"137";"73";"604";"3";"0";"0";"149";"0";"9988"
"18.03.2024, 09:30";"1710757801";"195";"5";"9";"139";"74";"568";"8";"0";"0";"159";"0";"9988"
"18.03.2024, 09:40";"1710758401";"186";"2";"6";"143";"72";"1,099";"10";"0";"0";"171";"0";"9988"
"18.03.2024, 09:50";"1710759001";"246";"3";"7";"145";"70";"753";"8";"0";"0";"152";"0";"9988"
"18.03.2024, 10:00";"1710759601";"213";"4";"10";"146";"69";"405";"2";"0";"0";"154";"0";"9993"
"18.03.2024, 10:10";"1710760201";"235";"6";"11";"145";"68";"430";"2";"0";"0";"156";"0";"9993"
"18.03.2024, 10:20";"1710760801";"223";"5";"9";"147";"67";"630";"7";"0";"0";"172";"0";"9993"
"18.03.2024, 10:30";"1710761401";"234";"6";"11";"148";"69";"1,080";"10";"0";"0";"153";"0";"9993"
"18.03.2024, 10:40";"1710762001";"237";"4";"8";"150";"69";"525";"3";"0";"0";"170";"0";"9993"
"18.03.2024, 10:50";"1710762601";"287";"8";"12";"145";"70";"848";"3";"0";"0";"155";"0";"9993"
"18.03.2024, 11:00";"1710763201";"283";"6";"12";"148";"68";"1,034";"7";"0";"0";"172";"0";"9993"
"18.03.2024, 11:10";"1710763801";"242";"5";"11";"148";"67";"589";"9";"0";"0";"159";"0";"9993"
"18.03.2024, 11:20";"1710764401";"250";"5";"10";"146";"68";"410";"4";"0";"0";"161";"0";"9993"
"18.03.2024, 11:30";"1710765001";"277";"5";"9";"146";"69";"376";"3";"0";"0";"156";"0";"9993"
"18.03.2024, 11:40";"1710765601";"247";"5";"11";"145";"68";"144";"0";"0";"0";"147";"0";"9993"
"18.03.2024, 11:50";"1710766201";"247";"6";"12";"144";"70";"118";"0";"0";"0";"151";"0";"9993"
"18.03.2024, 12:00";"1710766801";"272";"5";"11";"141";"70";"123";"0";"0";"0";"141";"0";"9995"
"18.03.2024, 12:10";"1710767401";"254";"5";"11";"140";"71";"97";"0";"0";"0";"144";"0";"9995"
"18.03.2024, 12:20";"1710768001";"277";"6";"10";"139";"72";"101";"0";"0";"0";"142";"0";"9995"
"18.03.2024, 12:30";"1710768601";"269";"6";"12";"138";"72";"103";"0";"0";"0";"141";"0";"9995"
"18.03.2024, 12:40";"1710769201";"238";"6";"12";"138";"73";"90";"0";"0";"0";"139";"0";"9995"
"18.03.2024, 12:50";"1710769801";"250";"5";"9";"136";"73";"76";"0";"0";"0";"136";"0";"9995"
"18.03.2024, 13:00";"1710770402";"279";"7";"11";"134";"76";"68";"0";"0";"0";"134";"0";"9998"
"18.03.2024, 13:10";"1710771001";"277";"5";"10";"133";"77";"139";"0";"0";"0";"139";"0";"9998"
"18.03.2024, 13:20";"1710771601";"294";"4";"7";"132";"78";"321";"1";"0";"0";"143";"0";"9998"
"18.03.2024, 13:30";"1710772201";"296";"5";"10";"134";"76";"693";"9";"0";"0";"146";"0";"9998"
"18.03.2024, 13:40";"1710772801";"293";"3";"8";"138";"72";"1,820";"10";"0";"0";"148";"0";"9998"
"18.03.2024, 13:50";"1710773401";"267";"4";"8";"140";"71";"1,693";"10";"0";"0";"142";"0";"9998"
"18.03.2024, 14:00";"1710774001";"264";"4";"8";"141";"70";"1,308";"7";"0";"0";"153";"0";"9995"
"18.03.2024, 14:10";"1710774601";"283";"3";"7";"142";"69";"2,279";"10";"0";"0";"139";"0";"9995"
"18.03.2024, 14:20";"1710775201";"272";"4";"8";"142";"68";"564";"8";"0";"0";"137";"0";"9995"
"18.03.2024, 14:30";"1710775801";"261";"4";"7";"143";"68";"880";"10";"0";"0";"141";"0";"9995"
"18.03.2024, 14:40";"1710776401";"250";"3";"7";"143";"67";"1,292";"10";"0";"0";"143";"0";"9995"
"18.03.2024, 14:50";"1710777001";"245";"3";"6";"145";"66";"1,816";"10";"0";"0";"144";"0";"9995"
"18.03.2024, 15:00";"1710777601";"217";"2";"6";"144";"65";"353";"2";"0";"0";"136";"0";"9995"
"18.03.2024, 15:10";"1710778201";"291";"3";"6";"142";"65";"597";"3";"0";"0";"131";"0";"9995"
"18.03.2024, 15:20";"1710778801";"296";"3";"6";"142";"65";"1,523";"10";"0";"0";"134";"0";"9995"
"18.03.2024, 15:30";"1710779401";"245";"3";"6";"143";"65";"1,392";"10";"0";"0";"140";"0";"9995"
"18.03.2024, 15:40";"1710780001";"248";"3";"6";"144";"65";"1,409";"10";"0";"0";"137";"0";"9995"
"18.03.2024, 15:50";"1710780601";"257";"3";"6";"143";"64";"546";"3";"0";"0";"134";"0";"9995"
"18.03.2024, 16:00";"1710781201";"245";"3";"7";"142";"64";"545";"6";"0";"0";"128";"0";"9998"
"18.03.2024, 16:10";"1710781801";"252";"2";"5";"140";"63";"636";"7";"0";"0";"122";"0";"9998"
"18.03.2024, 16:20";"1710782401";"270";"2";"5";"137";"65";"475";"7";"0";"0";"112";"0";"9998"
"18.03.2024, 16:30";"1710783001";"248";"0";"2";"133";"69";"82";"0";"0";"0";"109";"0";"9998"
"18.03.2024, 16:40";"1710783601";"217";"1";"3";"131";"71";"16";"0";"0";"0";"115";"0";"9998"
"18.03.2024, 16:50";"1710784201";"189";"2";"3";"130";"72";"8";"0";"0";"0";"118";"0";"9998"
"18.03.2024, 17:00";"1710784801";"177";"2";"3";"130";"72";"8";"0";"0";"0";"121";"0";"10003"
"18.03.2024, 17:10";"1710785401";"170";"2";"4";"129";"73";"8";"0";"0";"0";"117";"0";"10003"
"18.03.2024, 17:20";"1710786001";"167";"2";"3";"127";"74";"8";"0";"0";"0";"116";"0";"10003"
"18.03.2024, 17:30";"1710786601";"167";"2";"4";"124";"76";"8";"0";"0";"0";"109";"0";"10003"
"18.03.2024, 17:40";"1710787201";"166";"2";"4";"120";"78";"8";"0";"0";"0";"105";"0";"10003"
"18.03.2024, 17:50";"1710787802";"149";"1";"3";"116";"80";"9";"0";"0";"0";"100";"0";"10003"
"18.03.2024, 18:00";"1710788401";"155";"1";"4";"113";"81";"9";"0";"0";"0";"94";"0";"10008"
"18.03.2024, 18:10";"1710789001";"167";"2";"4";"111";"81";"8";"0";"0";"0";"100";"0";"10008"
"18.03.2024, 18:20";"1710789601";"168";"2";"5";"109";"82";"8";"0";"0";"0";"99";"0";"10008"
"18.03.2024, 18:30";"1710790201";"164";"3";"6";"108";"83";"8";"0";"0";"0";"98";"0";"10008"
"18.03.2024, 18:40";"1710790801";"167";"3";"4";"106";"84";"8";"0";"0";"0";"100";"0";"10008"
"18.03.2024, 18:50";"1710791401";"161";"3";"5";"105";"84";"8";"0";"0";"0";"99";"0";"10008"
"18.03.2024, 19:00";"1710792001";"161";"3";"5";"104";"84";"8";"0";"0";"0";"96";"0";"10010"
"18.03.2024, 19:10";"1710792601";"146";"2";"4";"104";"85";"9";"0";"0";"0";"95";"0";"10010"
"18.03.2024, 19:20";"1710793201";"165";"2";"5";"102";"85";"8";"0";"0";"0";"96";"0";"10010"
"18.03.2024, 19:30";"1710793801";"161";"3";"5";"102";"85";"8";"0";"0";"0";"95";"0";"10010"
"18.03.2024, 19:40";"1710794401";"157";"1";"4";"100";"85";"8";"0";"0";"0";"93";"0";"10010"
"18.03.2024, 19:50";"1710795001";"169";"2";"5";"99";"86";"8";"0";"0";"0";"93";"0";"10010"
"18.03.2024, 20:00";"1710795601";"165";"3";"5";"98";"86";"8";"0";"0";"0";"91";"0";"10010"
"18.03.2024, 20:10";"1710796201";"168";"3";"5";"97";"86";"8";"0";"0";"0";"92";"0";"10010"
"18.03.2024, 20:20";"1710796801";"158";"2";"5";"97";"86";"8";"0";"0";"0";"90";"0";"10010"
"18.03.2024, 20:30";"1710797401";"161";"2";"5";"97";"86";"8";"0";"0";"0";"91";"0";"10010"
"18.03.2024, 20:40";"1710798001";"154";"3";"5";"97";"86";"8";"0";"0";"0";"93";"0";"10010"
"18.03.2024, 20:50";"1710798601";"156";"1";"4";"97";"86";"9";"0";"0";"0";"93";"0";"10010"
"18.03.2024, 21:00";"1710799201";"153";"1";"4";"98";"86";"9";"0";"0";"0";"92";"0";"10013"
"18.03.2024, 21:10";"1710799801";"158";"0";"4";"97";"86";"8";"0";"0";"0";"91";"0";"10013"
"18.03.2024, 21:20";"1710800401";"162";"2";"4";"96";"86";"8";"0";"0";"0";"88";"0";"10013"
"18.03.2024, 21:30";"1710801001";"165";"3";"5";"95";"87";"8";"0";"0";"0";"89";"0";"10013"
"18.03.2024, 21:40";"1710801601";"166";"2";"4";"94";"87";"8";"0";"0";"0";"88";"0";"10013"
"18.03.2024, 21:50";"1710802201";"168";"3";"4";"94";"87";"8";"0";"0";"0";"89";"0";"10013"
"18.03.2024, 22:00";"1710802801";"165";"3";"5";"93";"87";"8";"0";"0";"0";"86";"0";"10013"
"18.03.2024, 22:10";"1710803401";"162";"1";"3";"92";"88";"8";"0";"0";"0";"82";"0";"10013"
"18.03.2024, 22:20";"1710804001";"159";"1";"3";"91";"89";"8";"0";"0";"0";"81";"0";"10013"
"18.03.2024, 22:30";"1710804601";"173";"2";"4";"90";"89";"8";"0";"0";"0";"83";"0";"10013"
"18.03.2024, 22:40";"1710805201";"170";"2";"4";"89";"89";"8";"0";"0";"0";"81";"0";"10013"
"18.03.2024, 22:50";"1710805801";"171";"3";"4";"89";"90";"8";"0";"0";"0";"83";"0";"10013"
"18.03.2024, 23:00";"1710806401";"169";"3";"4";"89";"90";"8";"0";"0";"0";"85";"0";"10013"
"18.03.2024, 23:10";"1710807001";"165";"2";"4";"90";"89";"8";"0";"0";"0";"86";"0";"10013"
"18.03.2024, 23:20";"1710807601";"163";"2";"4";"91";"89";"8";"0";"0";"0";"87";"0";"10013"
"18.03.2024, 23:30";"1710808201";"154";"1";"4";"92";"89";"8";"0";"0";"0";"87";"0";"10013"
"18.03.2024, 23:40";"1710808801";"165";"2";"3";"92";"88";"8";"0";"0";"0";"88";"0";"10013"
"18.03.2024, 23:50";"1710809401";"166";"1";"3";"93";"88";"8";"0";"0";"0";"87";"0";"10013"
"19.03.2024, 00:00";"1710810001";"165";"1";"3";"93";"88";"8";"0";"0";"0";"87";"0";"10013"
"19.03.2024, 00:10";"1710810601";"158";"2";"3";"94";"87";"8";"0";"0";"0";"88";"0";"10013"
"19.03.2024, 00:20";"1710811201";"166";"2";"4";"94";"87";"8";"0";"0";"0";"91";"0";"10013"
"19.03.2024, 00:30";"1710811801";"159";"2";"4";"96";"86";"8";"0";"0";"0";"89";"0";"10013"
"19.03.2024, 00:40";"1710812401";"152";"1";"3";"95";"87";"9";"0";"0";"0";"90";"0";"10013"
"19.03.2024, 00:50";"1710813001";"172";"2";"4";"95";"87";"8";"0";"0";"0";"90";"0";"10013"
"19.03.2024, 01:00";"1710813601";"172";"2";"4";"95";"87";"8";"0";"0";"0";"89";"0";"10008"
"19.03.2024, 01:10";"1710814201";"153";"2";"5";"96";"86";"8";"0";"0";"0";"90";"0";"10008"
"19.03.2024, 01:20";"1710814801";"159";"3";"5";"96";"86";"8";"0";"0";"0";"90";"0";"10008"
"19.03.2024, 01:30";"1710815401";"168";"3";"6";"96";"86";"8";"0";"0";"0";"88";"0";"10008"
"19.03.2024, 01:40";"1710816001";"166";"4";"6";"96";"86";"8";"0";"0";"0";"89";"0";"10008"
"19.03.2024, 01:50";"1710816601";"171";"4";"6";"95";"86";"8";"0";"0";"0";"91";"0";"10008"
"19.03.2024, 02:00";"1710817201";"171";"3";"5";"96";"85";"8";"0";"0";"0";"91";"0";"10003"
"19.03.2024, 02:10";"1710817801";"174";"3";"5";"96";"86";"8";"0";"0";"0";"91";"0";"10003"
"19.03.2024, 02:20";"1710818401";"169";"3";"5";"96";"85";"8";"0";"0";"0";"91";"0";"10003"
"19.03.2024, 02:30";"1710819001";"172";"3";"6";"96";"85";"8";"0";"0";"0";"91";"0";"10003"
"19.03.2024, 02:40";"1710819602";"176";"3";"6";"95";"85";"8";"0";"0";"0";"90";"0";"10003"
"19.03.2024, 02:50";"1710820201";"181";"3";"6";"95";"85";"8";"0";"0";"0";"90";"0";"10003"
"19.03.2024, 03:00";"1710820801";"173";"3";"6";"95";"84";"8";"0";"0";"0";"89";"0";"10010"
"19.03.2024, 03:10";"1710821401";"167";"3";"7";"95";"84";"8";"0";"0";"0";"87";"0";"10010"
"19.03.2024, 03:20";"1710822001";"167";"3";"6";"96";"83";"8";"0";"0";"0";"89";"0";"10010"
"19.03.2024, 03:30";"1710822601";"165";"3";"6";"95";"83";"8";"0";"0";"0";"89";"0";"10010"
"19.03.2024, 03:40";"1710823201";"166";"3";"6";"95";"84";"8";"0";"0";"0";"89";"0";"10010"
"19.03.2024, 03:50";"1710823801";"165";"3";"7";"95";"84";"8";"0";"0";"0";"87";"0";"10010"
"19.03.2024, 04:00";"1710824401";"166";"4";"7";"94";"84";"8";"0";"0";"0";"89";"0";"10013"
"19.03.2024, 04:10";"1710825001";"165";"3";"6";"94";"84";"8";"0";"0";"0";"89";"0";"10013"
"19.03.2024, 04:20";"1710825601";"170";"4";"6";"94";"84";"8";"0";"0";"0";"89";"0";"10013"
"19.03.2024, 04:30";"1710826201";"169";"3";"6";"94";"84";"8";"0";"0";"0";"89";"0";"10013"
"19.03.2024, 04:40";"1710826801";"166";"4";"7";"95";"84";"8";"0";"0";"0";"89";"0";"10013"
"19.03.2024, 04:50";"1710827401";"171";"3";"8";"95";"84";"8";"0";"0";"0";"90";"0";"10013"
"19.03.2024, 05:00";"1710828001";"166";"3";"6";"95";"83";"9";"0";"0";"0";"91";"0";"10017"
"19.03.2024, 05:10";"1710828601";"170";"3";"7";"96";"84";"18";"0";"0";"0";"92";"0";"10017"
"19.03.2024, 05:20";"1710829201";"170";"3";"7";"96";"84";"13";"0";"0";"0";"92";"0";"10017"
"19.03.2024, 05:30";"1710829801";"169";"3";"6";"96";"83";"9";"0";"0";"0";"94";"0";"10017"
"19.03.2024, 05:40";"1710830401";"172";"3";"6";"97";"83";"31";"0";"0";"0";"96";"0";"10017"
"19.03.2024, 05:50";"1710831001";"166";"3";"6";"98";"83";"96";"0";"0";"0";"99";"0";"10017"
"19.03.2024, 06:00";"1710831601";"156";"3";"7";"99";"82";"212";"0";"0";"0";"99";"0";"10020"
"19.03.2024, 06:10";"1710832201";"154";"3";"8";"101";"82";"398";"1";"0";"0";"105";"0";"10020"
"19.03.2024, 06:20";"1710832801";"162";"3";"6";"103";"81";"283";"1";"0";"0";"110";"0";"10020"
"19.03.2024, 06:30";"1710833401";"151";"2";"5";"106";"80";"367";"1";"0";"0";"118";"0";"10020"
"19.03.2024, 06:40";"1710834001";"168";"3";"7";"108";"79";"660";"8";"0";"0";"118";"0";"10020"
"19.03.2024, 06:50";"1710834601";"168";"4";"7";"110";"80";"550";"4";"0";"0";"114";"0";"10020"
"19.03.2024, 07:00";"1710835201";"162";"3";"6";"111";"79";"104";"0";"0";"0";"118";"0";"10024"
"19.03.2024, 07:10";"1710835801";"163";"2";"4";"113";"79";"171";"0";"0";"0";"124";"0";"10024"
"19.03.2024, 07:20";"1710836401";"150";"2";"5";"114";"78";"184";"0";"0";"0";"119";"0";"10024"
"19.03.2024, 07:30";"1710837001";"142";"2";"7";"116";"78";"106";"0";"0";"0";"121";"0";"10024"
"19.03.2024, 07:40";"1710837601";"151";"2";"5";"117";"78";"103";"0";"0";"0";"125";"0";"10024"
"19.03.2024, 07:50";"1710838201";"155";"2";"6";"119";"77";"168";"0";"0";"0";"128";"0";"10024"
"19.03.2024, 08:00";"1710838801";"147";"4";"8";"121";"78";"185";"0";"0";"0";"132";"0";"10024"
"19.03.2024, 08:10";"1710839401";"163";"3";"6";"123";"76";"176";"0";"0";"0";"131";"0";"10024"
"19.03.2024, 08:20";"1710840001";"160";"3";"7";"125";"75";"216";"0";"0";"0";"137";"0";"10024"
"19.03.2024, 08:30";"1710840601";"149";"3";"7";"128";"73";"329";"2";"0";"0";"147";"0";"10024"
"19.03.2024, 08:40";"1710841201";"162";"3";"6";"132";"72";"626";"10";"0";"0";"149";"0";"10024"
"19.03.2024, 08:50";"1710841801";"153";"3";"7";"135";"73";"535";"10";"0";"0";"154";"0";"10024"
"19.03.2024, 09:00";"1710842401";"168";"3";"6";"137";"71";"598";"10";"0";"0";"153";"0";"10024"
"19.03.2024, 09:10";"1710843001";"176";"3";"6";"139";"70";"633";"10";"0";"0";"153";"0";"10024"
"19.03.2024, 09:20";"1710843601";"187";"4";"7";"143";"68";"1,243";"10";"0";"0";"165";"0";"10024"
"19.03.2024, 09:30";"1710844201";"163";"4";"7";"146";"66";"1,092";"10";"0";"0";"166";"0";"10024"
"19.03.2024, 09:40";"1710844801";"177";"4";"6";"147";"65";"804";"10";"0";"0";"163";"0";"10024"
"19.03.2024, 09:50";"1710845401";"182";"4";"9";"148";"64";"510";"8";"0";"0";"159";"0";"10024"
"19.03.2024, 10:00";"1710846001";"187";"5";"8";"149";"62";"429";"5";"0";"0";"169";"0";"10021"
"19.03.2024, 10:10";"1710846601";"168";"4";"8";"153";"60";"1,352";"10";"0";"0";"176";"0";"10021"
"19.03.2024, 10:20";"1710847201";"174";"3";"6";"156";"60";"1,156";"10";"0";"0";"187";"0";"10021"
"19.03.2024, 10:30";"1710847801";"137";"3";"6";"159";"58";"1,831";"10";"0";"0";"177";"0";"10021"
"19.03.2024, 10:40";"1710848401";"127";"3";"9";"163";"57";"2,139";"10";"0";"0";"186";"0";"10021"
"19.03.2024, 10:50";"1710849001";"158";"3";"9";"166";"56";"2,087";"10";"0";"0";"181";"0";"10021"
"19.03.2024, 11:00";"1710849601";"176";"4";"8";"167";"55";"1,948";"10";"0";"0";"190";"0";"10016"
"19.03.2024, 11:10";"1710850201";"167";"5";"10";"170";"53";"2,106";"10";"0";"0";"201";"0";"10016"
"19.03.2024, 11:20";"1710850801";"154";"4";"10";"173";"53";"2,194";"10";"0";"0";"201";"0";"10016"
"19.03.2024, 11:30";"1710851401";"174";"5";"12";"171";"51";"2,208";"10";"0";"0";"206";"0";"10016"
"19.03.2024, 11:40";"1710852001";"183";"5";"11";"172";"52";"2,013";"7";"0";"0";"208";"0";"10016"
"19.03.2024, 11:50";"1710852601";"172";"5";"12";"171";"51";"2,424";"10";"0";"0";"179";"0";"10016"
"19.03.2024, 12:00";"1710853201";"172";"5";"9";"173";"50";"1,403";"7";"0";"0";"197";"0";"10014"
"19.03.2024, 12:10";"1710853801";"169";"4";"8";"173";"52";"2,115";"9";"0";"0";"173";"0";"10014"
"19.03.2024, 12:20";"1710854401";"173";"4";"8";"171";"50";"517";"1";"0";"0";"179";"0";"10014"
"19.03.2024, 12:30";"1710855001";"164";"4";"9";"172";"50";"1,932";"10";"0";"0";"179";"0";"10014"
"19.03.2024, 12:40";"1710855601";"185";"5";"9";"172";"49";"2,424";"10";"0";"0";"177";"0";"10014"
"19.03.2024, 12:50";"1710856201";"168";"4";"9";"177";"50";"2,664";"10";"0";"0";"183";"0";"10014"
"19.03.2024, 13:00";"1710856801";"198";"5";"12";"176";"46";"1,872";"10";"0";"0";"172";"0";"10016"
"19.03.2024, 13:10";"1710857401";"232";"5";"10";"175";"48";"207";"0";"0";"0";"175";"0";"10016"
"19.03.2024, 13:20";"1710858001";"211";"4";"8";"173";"46";"420";"3";"0";"0";"170";"0";"10016"
"19.03.2024, 13:30";"1710858601";"215";"5";"10";"174";"48";"896";"3";"0";"0";"177";"0";"10016"
"19.03.2024, 13:40";"1710859202";"209";"4";"8";"173";"47";"388";"2";"0";"0";"171";"0";"10016"
"19.03.2024, 13:50";"1710859801";"205";"4";"8";"172";"51";"662";"7";"0";"0";"168";"0";"10016"
"19.03.2024, 14:00";"1710860401";"179";"4";"9";"171";"49";"662";"10";"0";"0";"169";"0";"10012"
"19.03.2024, 14:10";"1710861001";"170";"4";"7";"171";"49";"600";"10";"0";"0";"177";"0";"10012"
"19.03.2024, 14:20";"1710861602";"168";"4";"7";"172";"49";"2,682";"10";"0";"0";"170";"0";"10012"
"19.03.2024, 14:30";"1710862201";"175";"3";"7";"173";"48";"2,213";"10";"0";"0";"170";"0";"10012"
"19.03.2024, 14:40";"1710862801";"139";"2";"6";"174";"49";"2,604";"10";"0";"0";"170";"0";"10012"
"19.03.2024, 14:50";"1710863401";"172";"4";"9";"174";"48";"2,029";"10";"0";"0";"166";"0";"10012"
"19.03.2024, 15:00";"1710864002";"163";"4";"8";"175";"50";"1,878";"10";"0";"0";"172";"0";"10012"
"19.03.2024, 15:10";"1710864601";"174";"4";"10";"175";"48";"2,416";"10";"0";"0";"165";"0";"10012"
"19.03.2024, 15:20";"1710865201";"192";"4";"9";"173";"49";"1,412";"7";"0";"0";"163";"0";"10012"
"19.03.2024, 15:30";"1710865801";"185";"5";"9";"172";"50";"445";"2";"0";"0";"156";"0";"10012"
"19.03.2024, 15:40";"1710866401";"201";"2";"7";"169";"52";"705";"9";"0";"0";"152";"0";"10012"
"19.03.2024, 15:50";"1710867002";"182";"3";"7";"167";"52";"607";"9";"0";"0";"151";"0";"10012"
"19.03.2024, 16:00";"1710867601";"180";"3";"6";"166";"52";"334";"0";"0";"0";"145";"0";"10014"
"19.03.2024, 16:10";"1710868201";"195";"2";"5";"163";"54";"150";"0";"0";"0";"142";"0";"10014"
"19.03.2024, 16:20";"1710868801";"170";"1";"3";"161";"55";"86";"0";"0";"0";"130";"0";"10014"
"19.03.2024, 16:30";"1710869402";"167";"1";"2";"157";"56";"62";"0";"0";"0";"122";"0";"10014"
"19.03.2024, 16:40";"1710870001";"138";"1";"2";"154";"58";"32";"0";"0";"0";"117";"0";"10014"
"19.03.2024, 16:50";"1710870601";"132";"1";"2";"147";"61";"11";"0";"0";"0";"113";"0";"10014"
"19.03.2024, 17:00";"1710871201";"140";"0";"2";"145";"62";"9";"0";"0";"0";"110";"0";"10016"
"19.03.2024, 17:10";"1710871801";"115";"1";"2";"140";"67";"9";"0";"0";"0";"114";"0";"10016"
"19.03.2024, 17:20";"1710872401";"107";"1";"2";"136";"68";"10";"0";"0";"0";"106";"0";"10016"
"19.03.2024, 17:30";"1710873001";"134";"1";"2";"134";"68";"9";"0";"0";"0";"103";"0";"10016"
"19.03.2024, 17:40";"1710873601";"162";"2";"3";"134";"68";"8";"0";"0";"0";"115";"0";"10016"
"19.03.2024, 17:50";"1710874201";"158";"2";"3";"132";"69";"9";"0";"0";"0";"112";"0";"10016"
"19.03.2024, 18:00";"1710874801";"162";"3";"4";"132";"69";"8";"0";"0";"0";"117";"0";"10022"
"19.03.2024, 18:10";"1710875401";"162";"3";"4";"131";"69";"8";"0";"0";"0";"121";"0";"10022"
"19.03.2024, 18:20";"1710876001";"160";"3";"5";"130";"70";"8";"0";"0";"0";"119";"0";"10022"